This demonstration page uses our WeatherBlox Daily Observations layout. Learn more.

39.51506, -84.39828

Hourly Observations for November 14, 2019

Temp ( °F °C ) Dew Point ( °F °C ) Humidity (%) Winds ( mph kmh ) Pressure ( in mb ) Visibility ( mi km ) Precip ( " mm )
12:15 am 00:15 Clear 27 -2.6 20 -6.8 73 73 SSW 7 11 30.21 1023 10 16.09344 N/A
12:35 am 00:35 Clear 26 -3.2 19 -7.2 74 74 SSW 5 7 30.21 1023 10 16.09344 N/A
12:55 am 00:55 Clear 26 -3.1 19 -7 75 75 SSW 7 11 30.21 1023 10 16.09344 N/A
1:15 am 01:15 Clear 27 -2.7 19 -7 73 73 S 7 11 30.21 1023 10 16.09344 N/A
1:35 am 01:35 Clear 27 -2.8 20 -6.5 76 76 S 7 11 30.21 1023 10 16.09344 N/A
1:55 am 01:55 Clear 28 -2.3 20 -6.4 74 74 SSW 8 13 30.21 1023 10 16.09344 N/A
2:15 am 02:15 Clear 28 -2.1 21 -6.1 74 74 SW 7 11 30.24 1024 10 16.09344 N/A
2:35 am 02:35 Clear 28 -2.1 21 -6 75 75 S 7 11 30.21 1023 10 16.09344 N/A
2:55 am 02:55 Partly Cloudy 29 -1.9 22 -5.8 75 75 SSW 8 13 30.21 1023 10 16.09344 N/A
3:15 am 03:15 Cloudy 29 -1.8 21 -6 73 73 S 7 11 30.21 1023 10 16.09344 N/A
3:35 am 03:35 Cloudy 29 -1.8 22 -5.7 75 75 SSW 6 9 30.21 1023 10 16.09344 N/A
3:55 am 03:55 Cloudy 29 -1.7 22 -5.5 76 76 S 6 9 30.21 1023 10 16.09344 N/A
4:15 am 04:15 Cloudy 29 -1.9 23 -4.9 80 80 Calm 30.21 1023 10 16.09344 N/A
4:35 am 04:35 Partly Cloudy 28 -2.1 23 -4.8 82 82 Calm 30.21 1023 10 16.09344 N/A
4:55 am 04:55 Partly Cloudy 29 -1.6 23 -5.1 77 77 S 6 9 30.21 1023 10 16.09344 N/A
5:15 am 05:15 Mostly Cloudy 29 -1.4 23 -4.9 77 77 SSW 7 11 30.24 1024 10 16.09344 N/A
5:35 am 05:35 Mostly Cloudy 29 -1.4 23 -4.8 78 78 S 6 9 30.24 1024 10 16.09344 N/A
5:55 am 05:55 Partly Cloudy 29 -1.4 23 -5 77 77 S 5 7 30.24 1024 10 16.09344 N/A
6:15 am 06:15 Mostly Cloudy 29 -1.4 24 -4.7 79 79 S 7 11 30.24 1024 10 16.09344 N/A
6:35 am 06:35 Partly Cloudy 29 -1.5 23 -4.8 78 78 SSW 6 9 30.24 1024 10 16.09344 N/A
6:55 am 06:55 Cloudy 29 -1.8 24 -4.7 81 81 S 5 7 30.24 1024 10 16.09344 N/A
7:15 am 07:15 Cloudy 29 -1.7 24 -4.7 80 80 SW 3 6 30.24 1024 10 16.09344 N/A
7:35 am 07:35 Cloudy 28 -2 24 -4.2 85 85 SW 3 6 30.24 1024 10 16.09344 N/A
7:55 am 07:55 Cloudy 29 -1.8 25 -3.7 87 87 WSW 3 6 30.27 1025 10 16.09344 N/A
8:15 am 08:15 Cloudy 30 -1.3 26 -3.6 85 85 Calm 30.27 1025 10 16.09344 N/A
8:35 am 08:35 Cloudy 31 -0.3 25 -4 76 76 S 5 7 30.27 1025 10 16.09344 N/A
8:55 am 08:55 Cloudy 32 0 25 -4 75 75 S 7 11 30.27 1025 10 16.09344 N/A
9:15 am 09:15 Cloudy 33 0.3 25 -3.8 74 74 S 6 9 30.27 1025 10 16.09344 N/A
9:35 am 09:35 Cloudy 33 0.6 25 -3.7 73 73 SSW 7 11 30.27 1025 10 16.09344 N/A
9:55 am 09:55 Cloudy 34 1 26 -3.4 73 73 SSW 8 13 30.27 1025 10 16.09344 N/A
10:15 am 10:15 Cloudy 34 1.2 25 -3.9 69 69 SSW 9 15 30.27 1025 10 16.09344 N/A
10:35 am 10:35 Cloudy 34 1.3 25 -3.8 69 69 SW 13 20 30.27 1025 10 16.09344 N/A
10:55 am 10:55 Cloudy 35 1.5 25 -3.9 68 68 SW 12 19 30.27 1025 10 16.09344 N/A
11:15 am 11:15 Cloudy 35 1.5 25 -3.9 68 68 SW 12 19 30.27 1025 10 16.09344 N/A
11:35 am 11:35 Partly Cloudy 35 1.4 25 -3.7 69 69 SW 9 15 30.27 1025 10 16.09344 N/A
11:55 am 11:55 Sunny 37 2.5 25 -3.8 64 64 SW 6 9 30.27 1025 10 16.09344 N/A
12:15 pm 12:15 Sunny 37 2.8 25 -3.7 63 63 SSW 9 15 30.27 1025 10 16.09344 N/A
12:35 pm 12:35 Sunny 38 3.3 25 -3.7 60 60 SW 7 11 30.27 1025 10 16.09344 N/A
12:55 pm 12:55 Sunny 38 3.6 26 -3.5 60 60 SSW 8 13 30.27 1025 10 16.09344 N/A
1:15 pm 13:15 Sunny 39 3.9 25 -3.7 58 58 SSW 5 7 30.27 1025 10 16.09344 N/A
1:35 pm 13:35 Sunny 40 4.4 26 -3.4 57 57 SSW 8 13 30.27 1025 10 16.09344 N/A
1:55 pm 13:55 Sunny 40 4.6 26 -3.1 58 58 SW 8 13 30.27 1025 10 16.09344 N/A
2:15 pm 14:15 Sunny 40 4.6 26 -3.4 56 56 SSW 8 13 30.27 1025 10 16.09344 N/A
2:35 pm 14:35 Sunny 41 5 26 -3.2 56 56 SSW 9 15 30.27 1025 10 16.09344 N/A
2:55 pm 14:55 Sunny 41 5.1 26 -3.1 56 56 SW 8 13 30.27 1025 10 16.09344 N/A
3:15 pm 15:15 Partly Cloudy 41 5.1 26 -3.3 55 55 SW 9 15 30.27 1025 10 16.09344 N/A
3:35 pm 15:35 Cloudy 41 5 26 -3.2 56 56 SW 7 11 30.27 1025 10 16.09344 N/A
3:55 pm 15:55 Cloudy 41 5.1 26 -3.2 55 55 SW 7 11 30.3 1026 10 16.09344 N/A
4:15 pm 16:15 Mostly Cloudy 40 4.7 26 -3.5 56 56 SSW 8 13 30.3 1026 10 16.09344 N/A
4:35 pm 16:35 Sunny 40 4.2 26 -3.3 59 59 SW 6 9 30.3 1026 10 16.09344 N/A
4:55 pm 16:55 Mostly Cloudy 39 4 27 -2.7 62 62 SW 6 9 30.3 1026 10 16.09344 N/A
5:15 pm 17:15 Mostly Cloudy 39 3.9 26 -3.2 60 60 WSW 5 7 30.3 1026 10 16.09344 N/A
5:35 pm 17:35 Mostly Cloudy 38 3.5 27 -3 63 63 SW 3 6 30.3 1026 10 16.09344 N/A
5:55 pm 17:55 Cloudy 34 1 29 -1.5 84 84 Calm 30.3 1026 10 16.09344 N/A
6:15 pm 18:15 Cloudy 33 0.8 30 -1.3 86 86 W 3 6 30.33 1027 10 16.09344 N/A
6:35 pm 18:35 Mostly Cloudy 33 0.7 29 -1.6 85 85 Calm 30.33 1027 10 16.09344 N/A
6:55 pm 18:55 Mostly Cloudy 34 1.1 29 -1.8 81 81 Calm 30.33 1027 10 16.09344 N/A
7:15 pm 19:15 Clear 32 0.1 28 -2 86 86 Calm 30.33 1027 10 16.09344 N/A
7:35 pm 19:35 Clear 31 -0.8 28 -2.3 90 90 Calm 30.33 1027 10 16.09344 N/A
7:55 pm 19:55 Clear 29 -1.5 27 -2.6 92 92 Calm 30.33 1027 10 16.09344 N/A
8:15 pm 20:15 Clear 28 -2.1 26 -3.1 93 93 Calm 30.33 1027 10 16.09344 N/A
8:35 pm 20:35 Clear 28 -2 26 -3.3 91 91 Calm 30.33 1027 10 16.09344 N/A
8:55 pm 20:55 Clear 29 -1.9 27 -3 92 92 Calm 30.33 1027 10 16.09344 N/A
9:15 pm 21:15 Clear 28 -2 26 -3.3 91 91 NW 5 7 30.33 1027 10 16.09344 N/A
9:35 pm 21:35 Clear 28 -2.1 26 -3.2 92 92 Calm 30.36 1028 10 16.09344 N/A
9:55 pm 21:55 Clear 27 -2.7 26 -3.6 94 94 Calm 30.36 1028 10 16.09344 N/A
10:15 pm 22:15 Clear 26 -3.2 25 -4.1 94 94 Calm 30.33 1027 10 16.09344 N/A
10:35 pm 22:35 Clear 26 -3.5 24 -4.2 95 95 Calm 30.36 1028 10 16.09344 N/A
10:55 pm 22:55 Clear 26 -3.3 25 -3.9 96 96 Calm 30.33 1027 10 16.09344 N/A
11:15 pm 23:15 Clear with Mist and Fog 25 -3.8 24 -4.2 97 97 Calm 30.36 1028 5 8.04672 N/A
11:35 pm 23:35 Clear 26 -3.5 25 -3.8 98 98 Calm 30.36 1028 7 11.265408 N/A
11:55 pm 23:55 Clear with Mist and Fog 25 -3.9 24 -4.3 97 97 Calm 30.36 1028 4 6.437376 N/A

Powered by AerisWeather